EW5295 Weather Reports


time (UTC)temp
C
wind
direction
speed
KPH
gust
KPH
rain 1hr
cm
rain 24hr
cm
rain mn
cm
humidity
%
barometer
mb
20260509214523 25 139 0.0 3.2 0.00 0.00 0.00 40 1016.5
20260509213020 25 167 0.0 3.2 0.00 0.00 0.00 43 1016.6
20260509211516 24 155 0.0 4.8 0.00 0.00 0.00 42 1016.8
20260509210015 24 212 0.0 4.8 0.00 0.00 0.00 45 1016.9
20260509204508 23 152 0.0 3.2 0.00 0.00 0.00 43 1016.9
20260509203006 23 130 0.0 4.8 0.00 0.00 0.00 42 1017.1
20260509201502 22 153 0.0 4.8 0.00 0.00 0.00 44 1017.4
20260509200107 22 141 0.0 3.2 0.00 0.00 0.00 45 1017.5
20260509194541 22 146 0.0 3.2 0.00 0.00 0.00 48 1017.8
20260509193041 21 155 0.0 3.2 0.00 0.00 0.00 50 1017.9
20260509191521 21 177 0.0 3.2 0.00 0.00 0.00 54 1018.1
20260509190032 21 291 0.0 3.2 0.00 0.00 0.00 53 1018.3
20260509184526 20 124 0.0 8.0 0.00 0.00 0.00 57 1018.5
20260509183017 20 97 0.0 3.2 0.00 0.00 0.00 56 1018.7
20260509181511 19 163 0.0 3.2 0.00 0.00 0.00 61 1018.8
20260509180010 18 131 0.0 1.6 0.00 0.00 0.00 65 1018.9
20260509174509 17 191 0.0 3.2 0.00 0.00 0.00 66 1018.9
20260509173011 17 172 0.0 4.8 0.00 0.00 0.00 69 1019.0
20260509171606 16 169 0.0 1.6 0.00 0.00 0.00 71 1019.2
20260509170050 15 194 0.0 1.6 0.00 0.00 0.00 74 1019.5
20260509164551 15 134 0.0 3.2 0.00 0.00 0.00 74 1019.5
20260509163053 14 127 0.0 1.6 0.00 0.00 0.00 77 1019.6
20260509161543 13 158 0.0 1.6 0.00 0.00 0.00 80 1019.9
20260509160044 13 170 0.0 1.6 0.00 0.00 0.00 82 1020.2
20260509154543 12 131 0.0 1.6 0.00 0.00 0.00 84 1020.1
20260509153044 11 176 0.0 1.6 0.00 0.00 0.00 85 1020.0
20260509151540 11 171 0.0 1.6 0.00 0.00 0.00 87 1020.4
20260509150017 11 166 0.0 1.6 0.00 0.00 0.00 88 1020.5
20260509144516 10 189 0.0 3.2 0.00 0.00 0.00 90 1020.5
20260509143017 10 165 0.0 1.6 0.00 0.00 0.00 92 1020.3
20260509141521 9 130 0.0 0.0 0.00 0.00 0.00 95 1020.4
20260509140018 8 129 0.0 0.0 0.00 0.00 0.00 95 1020.3
20260509134612 -17 0.0 0.0 0.00 0.00 0.00 1020.3
20260509133055 -17 0.0 0.0 0.00 0.00 0.00 1020.0
20260509131609 -17 0.0 0.0 0.00 0.00 0.00 1020.0
20260509130059 -17 0.0 0.0 0.00 0.00 0.00 1020.1
20260509124548 7 125 0.0 0.0 0.00 0.00 0.00 93 1019.9
20260509123049 8 128 0.0 0.0 0.00 0.00 0.00 93 1020.1
20260509121548 8 128 0.0 0.0 0.00 0.00 0.00 93 1020.3
20260509120040 8 128 0.0 0.0 0.00 0.00 0.00 92 1020.2
20260509114537 8 128 0.0 0.0 0.00 0.00 0.00 91 1020.2
20260509113024 8 128 0.0 0.0 0.00 0.00 0.00 91 1020.3
20260509111524 9 127 0.0 0.0 0.00 0.00 0.00 90 1020.4
20260509110025 9 127 0.0 3.2 0.00 0.00 0.00 90 1020.6
20260509104522 10 142 0.0 1.6 0.00 0.00 0.00 90 1020.8
20260509103025 10 154 0.0 3.2 0.00 0.00 0.00 90 1020.8
20260509101522 10 158 0.0 3.2 0.00 0.00 0.00 90 1020.8
20260509100019 10 131 0.0 1.6 0.00 0.00 0.00 90 1020.9
20260509094517 10 143 0.0 1.6 0.00 0.00 0.00 91 1020.8
20260509093016 10 153 0.0 3.2 0.00 0.00 0.00 91 1021.0
20260509091507 9 96 0.0 0.0 0.00 0.00 0.00 90 1021.1
20260509090003 9 96 0.0 0.0 0.00 0.00 0.00 90 1021.1
20260509084619 10 96 0.0 0.0 0.00 0.00 0.00 90 1021.3
20260509083059 10 96 0.0 1.6 0.00 0.00 0.00 90 1021.4
20260509081558 10 167 0.0 0.0 0.00 0.00 0.00 88 1021.5
20260509080057 10 167 0.0 0.0 0.00 0.00 0.00 87 1021.6
20260509074556 10 167 0.0 0.0 0.00 0.00 0.00 85 1021.8
20260509073034 11 167 0.0 0.0 0.00 0.00 0.00 85 1021.7
20260509071532 11 167 0.0 0.0 0.00 0.00 0.00 84 1021.7
20260509070019 11 167 0.0 0.0 0.00 0.00 0.00 85 1021.7
20260509064520 11 167 0.0 0.0 0.00 0.00 0.00 85 1021.6
20260509063017 11 167 0.0 0.0 0.00 0.00 0.00 83 1021.7
20260509061514 11 167 0.0 0.0 0.00 0.00 0.00 81 1021.6
20260509060012 12 167 0.0 0.0 0.00 0.00 0.00 80 1021.5
20260509054521 12 167 0.0 0.0 0.00 0.00 0.00 79 1021.5
20260509053013 13 167 0.0 0.0 0.00 0.00 0.00 78 1021.5
20260509051504 13 167 0.0 0.0 0.00 0.00 0.00 77 1021.4
20260509050050 13 167 0.0 0.0 0.00 0.00 0.00 76 1021.2
20260509044549 13 167 0.0 1.6 0.00 0.00 0.00 74 1021.1
20260509043043 14 148 0.0 3.2 0.00 0.00 0.00 71 1021.0
20260509041540 15 156 0.0 1.6 0.00 0.00 0.00 69 1020.9
20260509040036 15 163 0.0 3.2 0.00 0.00 0.00 66 1020.8
20260509034535 16 152 0.0 1.6 0.00 0.00 0.00 65 1020.7
20260509033033 16 150 0.0 0.0 0.00 0.00 0.00 64 1020.5
20260509031531 16 151 0.0 6.4 0.00 0.00 0.00 62 1020.5
20260509030030 16 159 0.0 0.0 0.00 0.00 0.00 62 1020.4
20260509024517 17 160 0.0 3.2 0.00 0.00 0.00 60 1020.3
20260509023023 17 168 0.0 1.6 0.00 0.00 0.00 58 1020.1
20260509021512 17 168 0.0 3.2 0.00 0.00 0.00 57 1020.1
20260509020008 18 105 0.0 1.6 0.00 0.00 0.00 56 1020.1
20260509014507 18 153 0.0 1.6 0.00 0.00 0.00 56 1020.2
20260509013006 18 106 0.0 1.6 0.00 0.00 0.00 56 1020.1
20260509011505 18 135 0.0 1.6 0.00 0.00 0.00 55 1020.3
20260509010104 18 141 0.0 1.6 0.00 0.00 0.00 53 1020.5
20260509004552 18 146 0.0 6.4 0.00 0.00 0.00 53 1020.4
20260509003112 19 135 0.0 4.8 0.00 0.00 0.00 53 1020.4
20260509001552 19 134 0.0 3.2 0.00 0.00 0.00 53 1020.5
20260509000105 19 141 0.0 1.6 0.00 0.00 0.00 53 1020.5
20260508234548 19 139 0.0 3.2 0.00 0.00 0.00 54 1020.7
20260508233048 19 212 0.0 1.6 0.00 0.00 0.00 51 1020.6
20260508231550 19 162 0.0 1.6 0.00 0.00 0.00 49 1020.6
20260508230044 20 139 0.0 1.6 0.00 0.00 0.00 52 1020.6
20260508224520 20 127 0.0 1.6 0.00 0.00 0.00 51 1020.7
20260508223019 19 305 0.0 1.6 0.00 0.00 0.00 54 1020.7
20260508221552 19 228 0.0 4.8 0.00 0.00 0.00 51 1020.8
20260508220052 19 74 0.0 4.8 0.00 0.00 0.00 55 1020.8